STARLINK-2498 (48326 NORAD) Tracking and Keplerian Element Data

This shows tracking and keplerian element data for the satellite.

Feedback or suggestion? Click here.




ElementValue
Catalog48326
NameSTARLINK-2498
Epoch Orbit1481
Epoch Day214.65981837
Epoch Year2021
RAAN83.5508
Inclination53.0554
Eccentricity0.0001427
Argument of Perigee88.0576
Mean Anonmoly272.0577
Mean Motion15.06399572
Decay Rate-1.23E-05
L11 48326U 21036BC 21214.65981837 -.00001230 00000-0 -63695-4 0 9993
L22 48326 53.0554 83.5508 0001427 88.0576 272.0577 15.06399572 14815

Live tracking and technical data element details for STARLINK-2498 (NORAD 48326). STARLINK-2498 can be tracked NOW for your location showing map with azimuth and elevation plus other details from your city location.

Track the satellite on the map from your city or location and see movement details for azimuth, elevation, latitude, longitude, range, height, and movement on the map or in text.







IsCatalogInMostPopularTable: catalog: 48326, numindb: 38
Update: records affected: 1



GetName: 48326 STARLINK-2498

Hit Count: updated at: Tue, 03 Aug 2021 20:34:39 GMT